User: anonymous   Login
Location: Unspecified
(0.0000°N, 0.0000°E)
Time: 12:02:56
(UTC+00:00)
Language:

Interbol-2 - Orbit

View from above orbital plane
View from above orbital plane
View from above satellite
View from above satellite

Ground track
Ground track

The orbit data is extracted from the following two-line orbital elements,

1 24292U 96050B   21015.99093301  .00000007  00000-0  00000+0 0  9998
2 24292  63.1216 144.6389 5441939 239.7524  10.8867  4.14704261369302
Epoch (UTC): 15 January 2021 23:46:56
Eccentricity: 0.5441939
inclination: 63.1216°
perigee height: 1081 km
apogee height: 18892 km
right ascension of ascending node: 144.6389°
argument of perigee: 239.7524°
revolutions per day: 4.14704261
mean anomaly at epoch: 10.8867°
orbit number at epoch: 36930

The dashed part of the orbit path shows where the satellite is in the earth's shadow,  

DLR